Starlink 5672

operational
NORAD ID: 55468 Int'l Des: 2023-015 Owner: SPXS Country: US Constellation: starlink
LEOCIRCULAR

About Starlink 5672

Description loading...

Live Position

Loading 3D Globe...

Upcoming Passes

Altitude History

Altitude vs Time

uPlot chart will show altitude changes over time

Two-Line Element Set

1 55468U 23015V 25302.31409052 .00000492 00000-0 51485-4 0 9997
2 55468 43.0046 319.6791 0001235 267.5722 92.4979 15.02537973150991
Epoch: Oct 29, 2025 • Age: 44 hours

Current Status

Altitude 567.9 km
Velocity 7.58 km/s
Sub-Earth Point -33.99°S, 164.4°E
Launch Date Feb 2, 2023
Age 2.7 years
Type internet

Technical Details

Classification Payload
Mass 305.00 kg
Dry Mass 290.00 kg
Total Mass 305.00 kg
Length 0.20 m
Diameter 2.80 m
Span 9.00 m
Shape Box + pan
Manufacturer SPXS
Bus Type Starlink
Phase Status In Orbit
Owner/State SPXS/US

Large Constellations

Loading constellations...